TimeAKDT,TemperatureF,Dew PointF,Humidity,Sea Level PressureIn,VisibilityMPH,Wind Direction,Wind SpeedMPH,Gust SpeedMPH,PrecipitationIn,Events,Conditions,WindDirDegrees,DateUTC
12:49 AM,24.8,19.4,80,30.22,10.0,NE,6.9,-,N/A,,Mostly Cloudy,50,2013-09-17 08:49:00
12:53 AM,25.0,19.9,81,30.22,10.0,ENE,5.8,-,N/A,,Mostly Cloudy,60,2013-09-17 08:53:00
1:53 AM,26.1,21.0,81,30.22,10.0,East,11.5,-,N/A,,Overcast,80,2013-09-17 09:53:00
2:15 AM,26.6,21.2,80,30.22,10.0,East,9.2,-,N/A,,Overcast,80,2013-09-17 10:15:00
2:53 AM,26.1,19.0,75,30.22,10.0,East,11.5,-,N/A,,Overcast,80,2013-09-17 10:53:00
3:53 AM,27.0,19.9,75,30.21,10.0,ENE,10.4,-,N/A,,Overcast,70,2013-09-17 11:53:00
4:53 AM,27.0,21.0,78,30.20,10.0,ENE,11.5,-,N/A,,Overcast,60,2013-09-17 12:53:00
5:53 AM,27.0,21.0,78,30.19,10.0,ENE,9.2,-,N/A,,Overcast,60,2013-09-17 13:53:00
6:53 AM,26.1,21.9,84,30.19,9.0,ENE,10.4,-,N/A,,Overcast,70,2013-09-17 14:53:00
7:53 AM,26.1,21.9,84,30.19,9.0,NE,5.8,-,N/A,,Overcast,50,2013-09-17 15:53:00
8:53 AM,26.1,21.9,84,30.18,10.0,ENE,6.9,-,N/A,,Overcast,60,2013-09-17 16:53:00
9:53 AM,27.0,23.0,85,30.18,6.0,ENE,6.9,-,N/A,,Overcast,60,2013-09-17 17:53:00
10:12 AM,26.6,23.0,86,30.17,9.0,ENE,6.9,-,N/A,,Overcast,70,2013-09-17 18:12:00
10:48 AM,26.6,24.8,93,30.17,2.5,NE,6.9,-,0.00,Snow,Light Snow,50,2013-09-17 18:48:00
10:53 AM,28.0,24.1,85,30.18,2.5,NE,10.4,-,0.00,Snow,Light Snow,50,2013-09-17 18:53:00
11:53 AM,28.0,24.1,85,30.18,10.0,NE,5.8,-,0.00,,Overcast,50,2013-09-17 19:53:00
12:17 PM,28.4,24.8,86,30.17,4.0,NE,13.8,18.4,0.00,Snow,Light Snow,50,2013-09-17 20:17:00
12:43 PM,28.4,23.0,80,30.17,10.0,NE,15.0,-,0.00,,Overcast,40,2013-09-17 20:43:00
12:53 PM,28.0,23.0,81,30.17,5.0,NNE,17.3,-,0.00,,Haze,30,2013-09-17 20:53:00
1:53 PM,28.0,23.0,81,30.17,10.0,NE,11.5,-,N/A,,Overcast,40,2013-09-17 21:53:00
2:04 PM,28.4,24.8,86,30.16,2.5,NE,13.8,-,0.00,Snow,Light Snow,40,2013-09-17 22:04:00
2:06 PM,28.4,24.8,86,30.16,2.0,NE,11.5,-,0.00,Snow,Light Snow,40,2013-09-17 22:06:00
2:13 PM,28.4,24.8,86,30.16,1.0,NE,12.7,-,0.00,Snow,Light Snow,40,2013-09-17 22:13:00
2:21 PM,28.4,24.8,86,30.16,3.0,NE,11.5,-,0.00,Snow,Light Snow,50,2013-09-17 22:21:00
2:37 PM,28.4,24.8,86,30.16,6.0,NE,13.8,-,0.00,,Overcast,40,2013-09-17 22:37:00
2:53 PM,28.0,21.9,78,30.16,10.0,NE,15.0,21.9,0.00,,Overcast,40,2013-09-17 22:53:00
3:53 PM,28.0,21.9,78,30.16,10.0,NNE,15.0,-,N/A,,Overcast,30,2013-09-17 23:53:00
4:53 PM,28.0,21.0,75,30.16,10.0,NNE,17.3,-,N/A,,Overcast,30,2013-09-18 00:53:00
5:53 PM,28.0,19.9,72,30.16,10.0,NE,12.7,-,N/A,,Overcast,40,2013-09-18 01:53:00
6:53 PM,28.9,19.9,69,30.15,10.0,NNE,16.1,-,N/A,,Overcast,30,2013-09-18 02:53:00
7:53 PM,28.9,21.0,72,30.15,10.0,NE,13.8,-,N/A,,Overcast,40,2013-09-18 03:53:00
8:00 PM,28.4,21.2,74,30.14,10.0,NE,13.8,-,N/A,,Overcast,40,2013-09-18 04:00:00
8:12 PM,28.4,21.2,74,30.14,10.0,NNE,15.0,-,N/A,,Overcast,30,2013-09-18 04:12:00
8:30 PM,28.4,21.2,74,30.14,10.0,NNE,13.8,-,N/A,,Overcast,30,2013-09-18 04:30:00
8:53 PM,28.9,21.0,72,30.14,10.0,NNE,13.8,-,N/A,,Overcast,20,2013-09-18 04:53:00
9:32 PM,28.4,19.4,69,30.14,10.0,NNE,13.8,-,N/A,,Overcast,20,2013-09-18 05:32:00
9:53 PM,28.9,21.0,72,30.15,10.0,NNE,12.7,-,N/A,,Overcast,30,2013-09-18 05:53:00
10:09 PM,28.4,21.2,74,30.15,10.0,NNE,15.0,-,N/A,,Overcast,30,2013-09-18 06:09:00
10:53 PM,28.0,21.9,78,30.15,10.0,NNE,16.1,-,N/A,,Overcast,30,2013-09-18 06:53:00
11:53 PM,28.9,19.9,69,30.14,10.0,NNE,9.2,-,N/A,,Overcast,30,2013-09-18 07:53:00